Location: Wiler
(46.4041°N, 7.7840°E)
Time: 01:52:41
(UTC+00:00)

Cosmos 468 Rocket - Pass Details

Date: 09 April 2020
Orbit: 745 x 779 km, 74.0° (Epoch: 03 June)

Event Time Altitude Azimuth Distance (km) Brightness Sun altitude
Rises 20:34:05 0° 335° (NNW) 3,216 8.3 -23.0°
Reaches altitude 10° 20:36:28 10° 333° (NNW) 2,282 7.4 -23.3°
Maximum altitude 20:41:35 67° 252° (WSW) 813 4.1 -23.9°
Enters shadow 20:42:43 51° 195° (SSW) 941 4.2 -24.1°
